Regional Weather Roundup
Issued by NWS

Home | Current Version | Previous Version | Graphics & Text | Print | Product List | Glossary On
Versions: 1 2 3 4 5 6 7 8 9 10 11 12 13 14 15 16 17 18 19 20 21 22 23 24 25 26 27 28 29 30 31 32 33 34 35 36 37 38 39 40 41 42 43 44 45 46 47 48 49 50
000
ASUS45 KABQ 181401
RWRNM
WEATHER ROUNDUP FOR NEW MEXICO
NATIONAL WEATHER SERVICE ALBUQUERQUE NM
800 AM MDT FRI APR 18 2014

NOTE: "FAIR" MEANS FEW OR NO CLOUDS BELOW 12,000 FEET AGL WITH NO
       SIGNIFICANT WEATHER OR OBSTRUCTIONS TO VISION.

      THIS PRODUCT IS RELEASED AS TWO VERSIONS.  ONE VERSION NEAR
      THE TOP OF THE HOUR CONTAINING PRELIMINARY DATA FROM ALBUQUERQUE
      AND OTHER STATIONS.  A FINAL VERSION WITH ADDITIONAL DATA IS
      ISSUED ABOUT 10 MINUTES AFTER THE HOUR.

NMZ501-503-504-510>518-181500-
NORTHWEST PLATEAU/NORTHCENTRAL MOUNTAINS

CITY           SKY/WX    TMP DP  RH WIND       PRES   REMARKS
FARMINGTON     SUNNY     46  21  37 E8        30.12R
SANTA FE       SUNNY     46  27  47 N3        30.21R
TAOS           MOSUNNY   39  23  52 N3        30.25S

$$
NMZ402-403-502-505>509-181500-
WESTCENTRAL MOUNTAINS/SOUTHWEST MOUNTAINS

CITY           SKY/WX    TMP DP  RH WIND       PRES   REMARKS
GALLUP         MOSUNNY   40  18  41 CALM      30.16R
SILVER CITY    CLOUDY    55  25  30 NE7       30.16R

$$
NMZ407-409-411-412-181500-
SOUTHERN DESERTS

CITY           SKY/WX    TMP DP  RH WIND       PRES   REMARKS
DEMING         PTSUNNY   58  32  37 NE10      30.10R
HOLLOMAN AFB   PTSUNNY   52  28  38 N3        30.14R
T OR C         PTSUNNY   56  22  26 NW5       30.14R

$$
NMZ519>523-181500-
CENTRAL VALLEYS/CENTRAL HIGHLANDS

CITY           SKY/WX    TMP DP  RH WIND       PRES   REMARKS
ALBUQUERQUE    MOSUNNY   48  27  44 N6        30.17R
DOUBLE EAGLE   MOSUNNY   45  27  49 N6        30.19R
CLINES CORNERS MOSUNNY   41  32  70 S3        30.21R
BELEN          FAIR      48  25  41 NW3       30.18R
SOCORRO        NOT AVBL

$$
NMZ524>526-539-540-181500-
SOUTHCENTRAL MOUNTAINS

CITY           SKY/WX    TMP DP  RH WIND       PRES   REMARKS
RUIDOSO        NOT AVBL

$$
NMZ527>531-181500-
NORTHEAST HIGHLANDS/NORTHEAST PLAINS

CITY           SKY/WX    TMP DP  RH WIND       PRES   REMARKS
LAS VEGAS      SUNNY     39  31  72 S15       30.20S WCI  31
RATON          SUNNY     39  34  82 N3        30.17F
CLAYTON        SUNNY     42  34  73 SW17      30.14S

$$
NMZ532>537-181500-
EASTCENTRAL PLAINS

CITY           SKY/WX    TMP DP  RH WIND       PRES   REMARKS
TUCUMCARI      PTSUNNY   44  37  76 SW7       30.19F
CANNON AFB     CLOUDY    39  30  69 SW8       30.23R FOG     WCI  34
CLOVIS AIRPORT CLOUDY    39  36  87 SW8       30.24F WCI  34

$$
NMZ028-029-538-181500-
SOUTHEAST PLAINS

CITY           SKY/WX    TMP DP  RH WIND       PRES   REMARKS
ROSWELL        CLOUDY    49  44  83 SE12      30.22R
CARLSBAD       CLOUDY    51  49  92 E7        30.20S FOG
HOBBS          CLOUDY    48  48 100 SE7       30.24R FOG


$$



USA.gov is the U.S. government's official web portal to all federal, state and local government web resources and services.